TimePDT,TemperatureF,Dew PointF,Humidity,Sea Level PressureIn,VisibilityMPH,Wind Direction,Wind SpeedMPH,Gust SpeedMPH,PrecipitationIn,Events,Conditions,WindDirDegrees,DateUTC
12:53 AM,60.1,53.1,78,29.99,10.0,Calm,Calm,-,N/A,,Clear,0,2012-11-01 07:53:00
1:53 AM,59.0,53.1,81,29.99,10.0,Calm,Calm,-,N/A,,Scattered Clouds,0,2012-11-01 08:53:00
3:53 AM,59.0,53.1,81,29.99,10.0,NW,6.9,-,N/A,,Overcast,310,2012-11-01 10:53:00
4:53 AM,59.0,53.1,81,29.99,10.0,NW,6.9,-,N/A,,Mostly Cloudy,310,2012-11-01 11:53:00
5:53 AM,57.9,55.0,90,30.00,10.0,WNW,6.9,-,0.01,Rain,Light Rain,300,2012-11-01 12:53:00
6:53 AM,57.9,55.9,93,30.01,6.0,WNW,6.9,-,0.01,Rain,Light Rain,290,2012-11-01 13:53:00
7:17 AM,57.2,55.4,94,30.00,2.0,NW,5.8,-,0.06,Rain,Rain,320,2012-11-01 14:17:00
7:27 AM,57.2,55.4,94,30.00,3.0,Calm,Calm,-,0.08,Rain,Light Rain,0,2012-11-01 14:27:00
7:53 AM,57.9,55.9,93,29.99,10.0,NW,10.4,-,0.08,,Mostly Cloudy,320,2012-11-01 14:53:00
8:53 AM,57.9,55.9,93,30.03,8.0,WSW,5.8,-,N/A,,Overcast,250,2012-11-01 15:53:00
9:11 AM,57.2,55.4,94,30.03,8.0,West,5.8,-,N/A,,Overcast,260,2012-11-01 16:11:00
9:25 AM,59.0,57.2,94,30.03,7.0,WSW,4.6,-,N/A,,Overcast,250,2012-11-01 16:25:00
10:11 AM,60.8,57.2,88,30.03,10.0,WNW,9.2,-,0.00,,Mostly Cloudy,300,2012-11-01 17:11:00
11:15 AM,62.6,57.2,82,30.03,10.0,NNW,9.2,-,N/A,,Partly Cloudy,330,2012-11-01 18:15:00
11:53 AM,64.0,57.9,80,30.02,10.0,NW,8.1,-,N/A,,Scattered Clouds,320,2012-11-01 18:53:00
12:53 PM,64.0,57.0,78,30.02,10.0,NW,8.1,-,N/A,,Mostly Cloudy,320,2012-11-01 19:53:00
1:19 PM,64.4,57.2,77,30.01,10.0,WNW,8.1,-,0.01,,Mostly Cloudy,300,2012-11-01 20:19:00
1:31 PM,64.4,55.4,73,30.01,10.0,NW,8.1,-,0.01,,Overcast,320,2012-11-01 20:31:00
2:53 PM,66.0,57.0,73,30.01,10.0,North,6.9,-,0.00,Rain,Light Rain,350,2012-11-01 21:53:00
3:02 PM,64.4,57.2,77,30.00,10.0,North,8.1,-,0.00,,Overcast,10,2012-11-01 22:02:00
3:09 PM,64.4,57.2,77,30.00,10.0,North,6.9,-,0.00,Rain,Light Rain,360,2012-11-01 22:09:00
3:53 PM,64.9,55.9,73,30.01,10.0,NNW,6.9,-,0.00,Rain,Light Rain,330,2012-11-01 22:53:00
4:53 PM,64.9,55.9,73,30.01,10.0,NW,6.9,-,0.00,,Overcast,320,2012-11-01 23:53:00
5:53 PM,64.9,55.0,70,30.01,10.0,NW,5.8,-,N/A,,Overcast,310,2012-11-02 00:53:00
6:53 PM,62.1,54.0,75,30.01,10.0,Calm,Calm,-,N/A,,Overcast,0,2012-11-02 01:53:00
7:53 PM,61.0,54.0,78,30.00,10.0,West,3.5,-,N/A,,Partly Cloudy,270,2012-11-02 02:53:00
8:53 PM,59.0,55.0,87,30.00,10.0,NW,4.6,-,N/A,,Clear,320,2012-11-02 03:53:00
9:53 PM,60.1,54.0,80,30.02,7.0,WNW,8.1,-,N/A,,Clear,290,2012-11-02 04:53:00
10:53 PM,57.9,53.1,84,30.01,10.0,NW,5.8,-,N/A,,Clear,320,2012-11-02 05:53:00
11:53 PM,57.0,53.1,87,30.02,10.0,NNW,8.1,-,N/A,,Clear,330,2012-11-02 06:53:00